| time (UTC) | temp C | wind direction | speed KPH | gust KPH | rain 1hr cm | rain 24hr cm | rain mn cm | humidity % | barometer mb |
| 20260504110504 | 21 | 280 | 20.9 | 0.0 | 0.00 | 0.00 | 0.00 | 46 | 1010.0 |
| 20260504100504 | 21 | 270 | 24.1 | 0.0 | 0.00 | 0.00 | 0.00 | 43 | 1010.0 |
| 20260504080504 | 18 | 250 | 25.7 | 0.0 | 0.00 | 0.00 | 0.00 | 55 | 1010.0 |
| 20260504050504 | 15 | 270 | 8.0 | 0.0 | 0.00 | 0.00 | 0.00 | 47 | 1009.0 |
| 20260504043503 | 13 | 270 | 8.0 | 0.0 | 0.00 | 0.00 | 0.00 | 54 | 1009.0 |
| 20260504040504 | 13 | 260 | 8.0 | 0.0 | 0.00 | 0.00 | 0.00 | 50 | 1008.0 |
| 20260504033504 | 12 | 260 | 8.0 | 0.0 | 0.00 | 0.00 | 0.00 | 54 | 1008.0 |
| 20260504030504 | 10 | 230 | 8.0 | 0.0 | 0.00 | 0.00 | 0.00 | 66 | 1009.0 |
| 20260504023503 | 10 | 310 | 12.9 | 0.0 | 0.00 | 0.00 | 0.00 | 76 | 1009.0 |
| 20260504020504 | 12 | 180 | 3.2 | 0.0 | 0.00 | 0.00 | 0.00 | 54 | 1008.0 |
| 20260504013503 | 11 | 160 | 4.8 | 0.0 | 0.00 | 0.00 | 0.00 | 62 | 1009.0 |
| 20260504010504 | 13 | 1 | 0.0 | 0.0 | 0.00 | 0.00 | 0.00 | 54 | 1009.0 |
| 20260504003503 | 12 | 1 | 0.0 | 0.0 | 0.00 | 0.00 | 0.00 | 62 | 1009.0 |
| 20260504000504 | 13 | 1 | 0.0 | 0.0 | 0.00 | 0.00 | 0.00 | 54 | 1009.0 |
| 20260503233504 | 12 | 310 | 1.6 | 0.0 | 0.00 | 0.00 | 0.00 | 62 | 1010.0 |
| 20260503230504 | 13 | 2 | 0.0 | 0.0 | 0.00 | 0.00 | 0.00 | 58 | 1010.0 |
| 20260503223503 | 13 | 160 | 4.8 | 0.0 | 0.00 | 0.00 | 0.00 | 58 | 1010.0 |
| 20260503220504 | 13 | 3 | 0.0 | 0.0 | 0.00 | 0.00 | 0.00 | 58 | 1011.0 |
| 20260503213503 | 15 | 20 | 4.8 | 0.0 | 0.00 | 0.00 | 0.00 | 51 | 1011.0 |
| 20260503210504 | 15 | 130 | 9.7 | 0.0 | 0.00 | 0.00 | 0.00 | 54 | 1011.0 |
| 20260503203503 | 15 | 130 | 4.8 | 0.0 | 0.00 | 0.00 | 0.00 | 51 | 1011.0 |
| 20260503200504 | 15 | 170 | 3.2 | 0.0 | 0.00 | 0.00 | 0.00 | 54 | 1011.0 |
| 20260503193503 | 16 | 160 | 1.6 | 0.0 | 0.00 | 0.00 | 0.00 | 45 | 1011.0 |
| 20260503190504 | 16 | 2 | 0.0 | 0.0 | 0.00 | 0.00 | 0.00 | 45 | 1011.0 |
| 20260503183503 | 17 | 1 | 0.0 | 0.0 | 0.00 | 0.00 | 0.00 | 42 | 1011.0 |
| 20260503180504 | 18 | 90 | 4.8 | 0.0 | 0.00 | 0.00 | 0.00 | 39 | 1010.0 |
| 20260503173504 | 18 | 80 | 9.7 | 0.0 | 0.00 | 0.00 | 0.00 | 42 | 1010.0 |
| 20260503170504 | 21 | 60 | 9.7 | 0.0 | 0.00 | 0.00 | 0.00 | 32 | 1010.0 |
| 20260503150503 | 27 | 240 | 14.5 | 0.0 | 0.00 | 0.00 | 0.00 | 18 | 1010.0 |
| 20260503130504 | 26 | 240 | 24.1 | 0.0 | 0.00 | 0.00 | 0.00 | 18 | 1011.0 |